Location: Pl�tzky
(52.0521°N, 11.8020°E)
Time: 16:44:29
(UTC+00:00)

ISS - Visible Passes

Search period start: 27 January 2021 00:00
Search period end: 06 February 2021 00:00
Orbit: 418 x 421 km, 51.6° (Epoch: 28 January)

Date Brightness Start Highest point End Pass type
(mag) Time Alt. Az. Time Alt. Az. Time Alt. Az.
27 Jan -3.7 17:00:28 10° WSW 17:03:51 76° S 17:06:14 18° E visible
27 Jan -1.9 18:37:16 10° W 18:39:13 32° W 18:39:13 32° W visible
28 Jan -3.8 17:49:56 10° W 17:53:20 84° S 17:53:50 62° ESE visible
28 Jan -0.1 19:26:47 10° W 19:26:48 10° W 19:26:48 10° W visible
29 Jan -3.8 17:02:35 10° W 17:05:59 86° S 17:08:28 17° E visible
29 Jan -1.9 18:39:24 10° W 18:41:27 31° W 18:41:27 31° W visible
30 Jan -3.5 17:52:02 10° W 17:55:24 65° SSW 17:56:07 48° SE visible
31 Jan -3.6 17:04:40 10° W 17:08:04 76° S 17:10:50 14° ESE visible
31 Jan -1.7 18:41:37 10° W 18:43:49 26° WSW 18:43:49 26° WSW visible
01 Feb -2.7 17:54:09 10° W 17:57:22 40° SSW 17:58:37 27° SSE visible
02 Feb -3.0 17:06:44 10° W 17:10:02 52° SSW 17:13:20 10° ESE visible
02 Feb -1.1 18:44:12 10° WSW 18:46:19 16° SW 18:46:30 16° SW visible
03 Feb -1.5 17:56:27 10° W 17:59:06 22° SW 18:01:32 11° SSE visible
04 Feb -1.9 17:08:51 10° W 17:11:51 30° SSW 17:14:51 10° SSE visible
05 Feb -0.5 17:59:54 10° SW 18:00:39 11° SW 18:01:25 10° SSW visible
